Regional Weather Roundup
Issued by NWS Lake Charles, LA

Home | Current Version | Previous Version | Text Only | Print | Product List | Glossary On
Versions: 1 2 3 4 5 6 7 8 9 10 11 12 13 14 15 16 17 18 19 20 21 22 23 24 25 26 27 28 29 30 31 32 33 34 35 36 37 38 39 40 41 42 43 44 45 46 47 48 49 50
000
ASUS44 KLCH 280610
RWRLCH
REGIONAL WEATHER ROUNDUP
NATIONAL WEATHER SERVICE LAKE CHARLES LA
100 AM CDT TUE MAR 28 2017

Note: "fair" indicates few or no clouds below 12,000 feet with no
significant weather and/or obstructions to visibility.


ACROSS SOUTHEAST TEXAS

CITY           SKY/WX    TMP DP  RH WIND       PRES   REMARKS
BEAUMONT       CLOUDY    73  70  90 S8        29.90S
BEAUMONT CITY  CLOUDY   N/A N/A N/A S5        29.91S
ORANGE         CLOUDY    73  72  96 S6        29.92S
JASPER         CLOUDY    70  69  97 CALM      29.93S FOG
$$

ACROSS CENTRAL LOUISIANA

CITY           SKY/WX    TMP DP  RH WIND       PRES   REMARKS
LEESVILLE      CLOUDY    70  70 100 S7        29.91S
FULLERTON      CLOUDY    70  68  93 CALM      29.90S
ALEXANDRIA INT CLOUDY    69  68  96 S5        29.91S
ESLER FIELD    CLOUDY    66  66 100 CALM      29.93S
DERIDDER       CLOUDY    69  67  95 CALM      29.94S FOG
OAKDALE        CLOUDY    65  65  97 CALM      29.92F FOG
OPELOUSAS      MOCLDY    69  67  95 MISG      29.93S
$$

ACROSS SOUTHWEST AND SOUTH CENTRAL LOUISIANA

CITY           SKY/WX    TMP DP  RH WIND       PRES   REMARKS
SULPHUR        CLOUDY    73  72  95 S9        29.92F
LAKE CHARLES   CLOUDY    73  70  90 S6        29.91F
CHENNAULT INT  CLOUDY    71  70  96 S7        29.92S
CAMERON PHI    MOCLDY    73  72  94 S13       29.90F
DEQUINCY       CLOUDY    71  69  95 SE6       29.92S
JENNINGS       CLOUDY    72  69  92 S7        29.92F
LAFAYETTE      CLEAR     73  70  90 S6        29.93F
NEW IBERIA     MOCLDY    71  68  90 S6        29.94F
ABBEVILLE      CLOUDY    72  72 100 S7        29.94F
PATTERSON      MOCLDY    72  70  94 S5        29.95F
SALT POINT       N/A     71  69  93 SE3       29.94F
$$

SELECTED SITES ACROSS THE REGION

CITY           SKY/WX    TMP DP  RH WIND       PRES   REMARKS
HOUSTON BUSH   CLOUDY    70  67  90 SE3       29.88S
HOUSTON HOBBY  PTCLDY    71  70  96 CALM      29.88S
GALVESTON      CLOUDY    75  73  93 SE12      29.90S
COLLEGE STAT   CLEAR     69  66  90 S7        29.87F
CONROE         CLOUDY    65  64  97 CALM      29.89S FOG
HUNTSVILLE     PTCLDY    70  65  84 VRB3      29.89S
LUFKIN         CLOUDY    69  67  93 S6        29.90R
SHREVEPORT     CLOUDY    70  64  81 CALM      29.90R
MONROE         PTCLDY    68  64  87 S5        29.91S
NATCHEZ MS     NOT AVBL
BATON ROUGE    CLEAR     70  67  90 S6        29.95F
N.O. INTL ARPT PTCLDY    71  69  93 S7        29.96S
SLIDELL        CLOUDY    72  70  93 S5        29.96S
$$

MARINE REPORTS

STATION/POSITION TIME  SKY/WX   TEMP    WIND        PRES    VSBY
                                AIR SEA DIR/SP/G
                 (UTC)          (F)     (DEG/KT/KT) (MB)    (MI)
BUOY 30 S HIGH I 0550            73 73  170/ 12/ 14 1012.1F
WVE H/P(F/S)=  3/ 7

SEA RIM ST PARK  0600            73     170/  9/ 11 1013.2R
PORT ARTHUR      0548               73  180/  6/ 13 1012.8R
SABINE PASS N    0548            73 75  170/ 10/ 15 1014.0R
TEXAS POINT      NOT AVBL
CALCASIEU PASS   0548            73 74  180/ 13/ 16   N/A
LK CHARLES BEACH 0548            72 72              1013.4F
MARSH ISLAND     0500            73                   N/A
FRESH WATER LOCK 0548            73 76  170/ 12/ 14 1013.5F
AMERADA PASS     0548            72 63  150/  5/  9 1013.9F
$$



USA.gov is the U.S. government's official web portal to all federal, state and local government web resources and services.